| time (UTC) | temp C | wind direction | speed KPH | gust KPH | rain 1hr cm | rain 24hr cm | rain mn cm | humidity % | barometer mb |
| 20260506150649 | 16 | 0 | 4.8 | 19.3 | 0.00 | 0.00 | 0.00 | 48 | 1024.0 |
| 20260506145755 | 16 | 0 | 4.8 | 9.7 | 0.00 | 0.00 | 0.00 | 55 | 1024.0 |
| 20260506144902 | 16 | 0 | 3.2 | 6.4 | 0.00 | 0.00 | 0.00 | 55 | 1024.0 |
| 20260506144008 | 16 | 0 | 3.2 | 9.7 | 0.00 | 0.00 | 0.00 | 58 | 1023.9 |
| 20260506143114 | 15 | 0 | 6.4 | 14.5 | 0.00 | 0.00 | 0.00 | 60 | 1023.8 |
| 20260506142220 | 15 | 0 | 6.4 | 16.1 | 0.00 | 0.00 | 0.00 | 59 | 1023.7 |
| 20260506141326 | 15 | 0 | 8.0 | 16.1 | 0.00 | 0.00 | 0.00 | 57 | 1023.6 |
| 20260506140431 | 15 | 0 | 3.2 | 11.3 | 0.00 | 0.00 | 0.00 | 56 | 1023.8 |
| 20260506135537 | 15 | 0 | 6.4 | 12.9 | 0.00 | 0.00 | 0.00 | 57 | 1023.8 |
| 20260506134643 | 14 | 0 | 3.2 | 17.7 | 0.00 | 0.00 | 0.00 | 58 | 1024.3 |
| 20260506133748 | 13 | 0 | 6.4 | 17.7 | 0.00 | 0.00 | 0.00 | 59 | 1024.3 |
| 20260506132854 | 13 | 0 | 6.4 | 17.7 | 0.00 | 0.00 | 0.00 | 61 | 1024.2 |
| 20260506132000 | 13 | 0 | 6.4 | 14.5 | 0.00 | 0.00 | 0.00 | 64 | 1024.3 |
| 20260506131105 | 12 | 0 | 3.2 | 8.0 | 0.00 | 0.00 | 0.00 | 71 | 1024.5 |
| 20260506130211 | 12 | 0 | 1.6 | 6.4 | 0.00 | 0.00 | 0.00 | 77 | 1024.4 |
| 20260506125317 | 11 | 0 | 3.2 | 6.4 | 0.00 | 0.00 | 0.00 | 79 | 1024.6 |
| 20260506124422 | 11 | 0 | 1.6 | 4.8 | 0.00 | 0.00 | 0.00 | 80 | 1024.6 |
| 20260506123526 | 11 | 0 | 0.0 | 4.8 | 0.00 | 0.00 | 0.00 | 80 | 1024.7 |
| 20260506122632 | 11 | 0 | 1.6 | 6.4 | 0.00 | 0.00 | 0.00 | 81 | 1024.9 |
| 20260506121737 | 10 | 0 | 1.6 | 6.4 | 0.00 | 0.00 | 0.00 | 80 | 1025.0 |
| 20260506120843 | 10 | 0 | 0.0 | 6.4 | 0.00 | 0.00 | 0.00 | 80 | 1024.8 |
| 20260506115949 | 10 | 0 | 0.0 | 3.2 | 0.00 | 0.00 | 0.00 | 80 | 1024.9 |
| 20260506115053 | 10 | 0 | 1.6 | 3.2 | 0.00 | 0.00 | 0.00 | 80 | 1024.6 |
| 20260506114159 | 10 | 0 | 0.0 | 3.2 | 0.00 | 0.00 | 0.00 | 79 | 1024.4 |
| 20260506113305 | 10 | 0 | 1.6 | 3.2 | 0.00 | 0.00 | 0.00 | 80 | 1024.0 |
| 20260506112411 | 10 | 0 | 1.6 | 3.2 | 0.00 | 0.00 | 0.00 | 79 | 1024.1 |
| 20260506111518 | 10 | 0 | 1.6 | 3.2 | 0.00 | 0.00 | 0.00 | 80 | 1024.0 |
| 20260506110623 | 10 | 0 | 1.6 | 4.8 | 0.00 | 0.00 | 0.00 | 79 | 1024.1 |
| 20260506105729 | 11 | 0 | 3.2 | 4.8 | 0.00 | 0.00 | 0.00 | 79 | 1023.8 |
| 20260506104836 | 11 | 0 | 0.0 | 1.6 | 0.00 | 0.00 | 0.00 | 79 | 1023.7 |
| 20260506103943 | 11 | 0 | 0.0 | 1.6 | 0.00 | 0.00 | 0.00 | 78 | 1023.4 |
| 20260506103049 | 11 | 0 | 0.0 | 1.6 | 0.00 | 0.00 | 0.00 | 78 | 1023.1 |
| 20260506102155 | 11 | 0 | 0.0 | 3.2 | 0.00 | 0.00 | 0.00 | 78 | 1023.3 |
| 20260506101301 | 11 | 0 | 0.0 | 3.2 | 0.00 | 0.00 | 0.00 | 78 | 1023.2 |
| 20260506100408 | 11 | 0 | 1.6 | 3.2 | 0.00 | 0.00 | 0.00 | 78 | 1023.2 |
| 20260506095514 | 11 | 0 | 1.6 | 3.2 | 0.00 | 0.00 | 0.00 | 78 | 1023.0 |
| 20260506094620 | 11 | 0 | 1.6 | 3.2 | 0.00 | 0.00 | 0.00 | 78 | 1023.0 |
| 20260506093726 | 11 | 0 | 0.0 | 4.8 | 0.00 | 0.00 | 0.00 | 78 | 1022.7 |
| 20260506092832 | 11 | 0 | 3.2 | 4.8 | 0.00 | 0.00 | 0.00 | 78 | 1022.5 |
| 20260506091939 | 11 | 0 | 1.6 | 4.8 | 0.00 | 0.00 | 0.00 | 78 | 1022.3 |
| 20260506091045 | 10 | 0 | 1.6 | 3.2 | 0.00 | 0.00 | 0.00 | 78 | 1022.2 |
| 20260506090152 | 10 | 0 | 0.0 | 3.2 | 0.00 | 0.00 | 0.00 | 79 | 1022.2 |
| 20260506085255 | 11 | 0 | 1.6 | 3.2 | 0.00 | 0.00 | 0.00 | 78 | 1022.1 |
| 20260506084402 | 11 | 0 | 1.6 | 3.2 | 0.00 | 0.00 | 0.00 | 77 | 1022.1 |
| 20260506083508 | 11 | 0 | 1.6 | 3.2 | 0.00 | 0.00 | 0.00 | 77 | 1022.3 |
| 20260506082615 | 11 | 0 | 1.6 | 4.8 | 0.00 | 0.00 | 0.00 | 77 | 1022.5 |
| 20260506081721 | 11 | 0 | 1.6 | 4.8 | 0.00 | 0.00 | 0.00 | 77 | 1022.5 |
| 20260506080827 | 11 | 0 | 1.6 | 8.0 | 0.00 | 0.00 | 0.00 | 76 | 1022.3 |
| 20260506073250 | 11 | 0 | 1.6 | 3.2 | 0.00 | 0.00 | 0.00 | 75 | 1021.7 |
| 20260506072356 | 11 | 0 | 1.6 | 3.2 | 0.00 | 0.00 | 0.00 | 75 | 1021.5 |
| 20260506071502 | 12 | 0 | 1.6 | 6.4 | 0.00 | 0.00 | 0.00 | 74 | 1021.6 |
| 20260506070608 | 12 | 0 | 3.2 | 6.4 | 0.00 | 0.00 | 0.00 | 73 | 1021.8 |
| 20260506062139 | 12 | 0 | 1.6 | 3.2 | 0.00 | 0.00 | 0.00 | 73 | 1022.1 |
| 20260506061245 | 12 | 0 | 0.0 | 6.4 | 0.00 | 0.00 | 0.00 | 73 | 1022.2 |
| 20260506060351 | 12 | 0 | 3.2 | 6.4 | 0.00 | 0.00 | 0.00 | 73 | 1022.5 |
| 20260506051028 | 12 | 0 | 1.6 | 4.8 | 0.00 | 0.00 | 0.00 | 73 | 1022.6 |
| 20260506050134 | 12 | 0 | 1.6 | 4.8 | 0.00 | 0.00 | 0.00 | 73 | 1022.8 |
| 20260506044345 | 12 | 0 | 0.0 | 1.6 | 0.00 | 0.00 | 0.00 | 72 | 1022.8 |
| 20260506043451 | 12 | 0 | 0.0 | 3.2 | 0.00 | 0.00 | 0.00 | 73 | 1022.9 |
| 20260506042558 | 12 | 0 | 1.6 | 3.2 | 0.00 | 0.00 | 0.00 | 72 | 1022.8 |
| 20260506041703 | 13 | 0 | 1.6 | 3.2 | 0.00 | 0.00 | 0.00 | 72 | 1022.8 |
| 20260506040809 | 13 | 0 | 1.6 | 3.2 | 0.00 | 0.00 | 0.00 | 71 | 1022.9 |
| 20260506035915 | 13 | 0 | 0.0 | 3.2 | 0.00 | 0.00 | 0.00 | 71 | 1023.0 |
| 20260506035020 | 13 | 0 | 1.6 | 3.2 | 0.00 | 0.00 | 0.00 | 71 | 1023.1 |
| 20260506034125 | 13 | 0 | 1.6 | 3.2 | 0.00 | 0.00 | 0.00 | 71 | 1023.2 |
| 20260506033232 | 13 | 0 | 1.6 | 3.2 | 0.00 | 0.00 | 0.00 | 71 | 1023.0 |
| 20260506032336 | 13 | 0 | 0.0 | 4.8 | 0.00 | 0.00 | 0.00 | 71 | 1023.0 |
| 20260506031443 | 13 | 0 | 1.6 | 4.8 | 0.00 | 0.00 | 0.00 | 70 | 1023.0 |
| 20260506030549 | 13 | 0 | 1.6 | 4.8 | 0.00 | 0.00 | 0.00 | 70 | 1022.9 |
| 20260506025655 | 13 | 0 | 0.0 | 4.8 | 0.00 | 0.00 | 0.00 | 71 | 1022.9 |
| 20260506024800 | 13 | 0 | 1.6 | 4.8 | 0.00 | 0.00 | 0.00 | 71 | 1022.8 |
| 20260506023907 | 13 | 0 | 3.2 | 6.4 | 0.00 | 0.00 | 0.00 | 71 | 1022.8 |
| 20260506023010 | 13 | 0 | 3.2 | 6.4 | 0.00 | 0.00 | 0.00 | 71 | 1023.1 |
| 20260506022115 | 13 | 0 | 1.6 | 4.8 | 0.00 | 0.00 | 0.00 | 70 | 1023.1 |
| 20260506021220 | 13 | 0 | 3.2 | 4.8 | 0.00 | 0.00 | 0.00 | 70 | 1023.0 |
| 20260506020325 | 13 | 0 | 1.6 | 4.8 | 0.00 | 0.00 | 0.00 | 70 | 1022.9 |
| 20260506015431 | 13 | 0 | 1.6 | 4.8 | 0.00 | 0.00 | 0.00 | 69 | 1023.0 |
| 20260506014537 | 13 | 0 | 3.2 | 6.4 | 0.00 | 0.00 | 0.00 | 68 | 1023.0 |
| 20260506013643 | 13 | 0 | 3.2 | 6.4 | 0.00 | 0.00 | 0.00 | 69 | 1023.0 |
| 20260506012748 | 14 | 0 | 0.0 | 6.4 | 0.00 | 0.00 | 0.00 | 67 | 1023.1 |
| 20260506011853 | 13 | 0 | 3.2 | 9.7 | 0.00 | 0.00 | 0.00 | 69 | 1023.2 |
| 20260506011000 | 14 | 0 | 3.2 | 9.7 | 0.00 | 0.00 | 0.00 | 67 | 1023.1 |
| 20260506010105 | 14 | 0 | 4.8 | 11.3 | 0.00 | 0.00 | 0.00 | 68 | 1023.3 |
| 20260506005210 | 14 | 0 | 4.8 | 11.3 | 0.00 | 0.00 | 0.00 | 66 | 1023.2 |
| 20260506004316 | 14 | 0 | 4.8 | 11.3 | 0.00 | 0.00 | 0.00 | 66 | 1023.2 |
| 20260506003421 | 15 | 0 | 4.8 | 9.7 | 0.00 | 0.00 | 0.00 | 66 | 1023.2 |
| 20260506002528 | 15 | 0 | 4.8 | 9.7 | 0.00 | 0.00 | 0.00 | 65 | 1022.9 |
| 20260506001634 | 15 | 0 | 3.2 | 11.3 | 0.00 | 0.00 | 0.00 | 64 | 1022.4 |
| 20260506000741 | 15 | 0 | 4.8 | 11.3 | 0.00 | 0.00 | 0.00 | 63 | 1022.5 |
| 20260505235847 | 15 | 0 | 4.8 | 12.9 | 0.00 | 0.00 | 0.00 | 62 | 1022.2 |
| 20260505234953 | 15 | 0 | 4.8 | 12.9 | 0.00 | 0.00 | 0.00 | 63 | 1022.3 |
| 20260505234059 | 15 | 0 | 6.4 | 12.9 | 0.00 | 0.00 | 0.00 | 63 | 1022.2 |
| 20260505233205 | 16 | 0 | 4.8 | 9.7 | 0.00 | 0.00 | 0.00 | 62 | 1022.2 |
| 20260505232312 | 16 | 0 | 4.8 | 11.3 | 0.00 | 0.00 | 0.00 | 61 | 1022.1 |
| 20260505231417 | 16 | 0 | 3.2 | 11.3 | 0.00 | 0.00 | 0.00 | 61 | 1022.1 |
| 20260505230524 | 16 | 0 | 3.2 | 8.0 | 0.00 | 0.00 | 0.00 | 61 | 1022.0 |
| 20260505225629 | 16 | 0 | 3.2 | 11.3 | 0.00 | 0.00 | 0.00 | 61 | 1021.9 |
| 20260505224736 | 16 | 0 | 4.8 | 11.3 | 0.00 | 0.00 | 0.00 | 58 | 1021.7 |
| 20260505223842 | 16 | 0 | 1.6 | 8.0 | 0.00 | 0.00 | 0.00 | 58 | 1021.6 |
| 20260505222948 | 16 | 0 | 3.2 | 11.3 | 0.00 | 0.00 | 0.00 | 57 | 1021.5 |
| 20260505222054 | 17 | 0 | 6.4 | 11.3 | 0.00 | 0.00 | 0.00 | 54 | 1021.3 |
| 20260505221159 | 17 | 0 | 3.2 | 11.3 | 0.00 | 0.00 | 0.00 | 54 | 1021.3 |
| 20260505220304 | 17 | 0 | 4.8 | 11.3 | 0.00 | 0.00 | 0.00 | 51 | 1021.2 |
| 20260505215410 | 17 | 0 | 4.8 | 11.3 | 0.00 | 0.00 | 0.00 | 52 | 1021.2 |
| 20260505214517 | 17 | 0 | 4.8 | 8.0 | 0.00 | 0.00 | 0.00 | 50 | 1020.7 |
| 20260505213623 | 17 | 0 | 3.2 | 11.3 | 0.00 | 0.00 | 0.00 | 49 | 1020.5 |
| 20260505212729 | 18 | 0 | 4.8 | 9.7 | 0.00 | 0.00 | 0.00 | 48 | 1020.4 |
| 20260505211834 | 18 | 0 | 4.8 | 9.7 | 0.00 | 0.00 | 0.00 | 47 | 1020.4 |
| 20260505210940 | 18 | 0 | 4.8 | 9.7 | 0.00 | 0.00 | 0.00 | 46 | 1020.3 |
| 20260505210044 | 18 | 0 | 3.2 | 9.7 | 0.00 | 0.00 | 0.00 | 45 | 1020.2 |
| 20260505205151 | 18 | 0 | 3.2 | 9.7 | 0.00 | 0.00 | 0.00 | 45 | 1020.3 |
| 20260505204256 | 18 | 0 | 4.8 | 9.7 | 0.00 | 0.00 | 0.00 | 44 | 1020.4 |
| 20260505203402 | 18 | 0 | 3.2 | 9.7 | 0.00 | 0.00 | 0.00 | 44 | 1020.5 |
| 20260505202509 | 18 | 0 | 3.2 | 9.7 | 0.00 | 0.00 | 0.00 | 43 | 1020.3 |
| 20260505201615 | 18 | 0 | 3.2 | 9.7 | 0.00 | 0.00 | 0.00 | 43 | 1020.2 |
| 20260505200722 | 19 | 0 | 4.8 | 11.3 | 0.00 | 0.00 | 0.00 | 42 | 1020.0 |
| 20260505195828 | 19 | 0 | 6.4 | 11.3 | 0.00 | 0.00 | 0.00 | 42 | 1020.3 |
| 20260505194934 | 19 | 0 | 4.8 | 11.3 | 0.00 | 0.00 | 0.00 | 41 | 1020.2 |
| 20260505194040 | 20 | 0 | 4.8 | 11.3 | 0.00 | 0.00 | 0.00 | 39 | 1020.2 |
| 20260505193145 | 20 | 0 | 3.2 | 9.7 | 0.00 | 0.00 | 0.00 | 36 | 1020.0 |
| 20260505192251 | 20 | 0 | 3.2 | 9.7 | 0.00 | 0.00 | 0.00 | 36 | 1020.0 |
| 20260505191356 | 20 | 0 | 4.8 | 12.9 | 0.00 | 0.00 | 0.00 | 35 | 1020.0 |
| 20260505190502 | 20 | 0 | 6.4 | 14.5 | 0.00 | 0.00 | 0.00 | 35 | 1019.8 |
| 20260505185610 | 20 | 0 | 8.0 | 14.5 | 0.00 | 0.00 | 0.00 | 34 | 1019.9 |
| 20260505184713 | 20 | 0 | 6.4 | 14.5 | 0.00 | 0.00 | 0.00 | 34 | 1019.8 |
| 20260505183819 | 21 | 0 | 6.4 | 11.3 | 0.00 | 0.00 | 0.00 | 34 | 1019.8 |
| 20260505182925 | 21 | 0 | 4.8 | 12.9 | 0.00 | 0.00 | 0.00 | 33 | 1019.7 |
| 20260505182030 | 21 | 0 | 8.0 | 17.7 | 0.00 | 0.00 | 0.00 | 32 | 1019.5 |
| 20260505181136 | 21 | 0 | 6.4 | 17.7 | 0.00 | 0.00 | 0.00 | 34 | 1019.6 |
| 20260505180242 | 21 | 0 | 4.8 | 11.3 | 0.00 | 0.00 | 0.00 | 33 | 1019.5 |
| 20260505175348 | 21 | 0 | 4.8 | 12.9 | 0.00 | 0.00 | 0.00 | 31 | 1019.5 |
| 20260505174455 | 21 | 0 | 6.4 | 12.9 | 0.00 | 0.00 | 0.00 | 33 | 1019.5 |
| 20260505173600 | 21 | 0 | 4.8 | 11.3 | 0.00 | 0.00 | 0.00 | 33 | 1019.4 |
| 20260505172706 | 21 | 0 | 4.8 | 11.3 | 0.00 | 0.00 | 0.00 | 36 | 1019.6 |
| 20260505171812 | 21 | 0 | 4.8 | 12.9 | 0.00 | 0.00 | 0.00 | 34 | 1019.4 |
| 20260505170918 | 20 | 0 | 6.4 | 12.9 | 0.00 | 0.00 | 0.00 | 35 | 1019.5 |
| 20260505170024 | 20 | 0 | 4.8 | 9.7 | 0.00 | 0.00 | 0.00 | 35 | 1019.4 |
| 20260505165130 | 20 | 0 | 4.8 | 9.7 | 0.00 | 0.00 | 0.00 | 37 | 1019.6 |
| 20260505164234 | 20 | 0 | 3.2 | 9.7 | 0.00 | 0.00 | 0.00 | 36 | 1019.7 |
| 20260505163339 | 20 | 0 | 4.8 | 9.7 | 0.00 | 0.00 | 0.00 | 37 | 1019.8 |
| 20260505162446 | 20 | 0 | 4.8 | 9.7 | 0.00 | 0.00 | 0.00 | 38 | 1019.8 |
| 20260505161552 | 20 | 0 | 4.8 | 9.7 | 0.00 | 0.00 | 0.00 | 38 | 1019.8 |
| 20260505160659 | 19 | 0 | 3.2 | 6.4 | 0.00 | 0.00 | 0.00 | 38 | 1019.7 |
| 20260505153123 | 18 | 0 | 1.6 | 6.4 | 0.00 | 0.00 | 0.00 | 38 | 1020.2 |
| 20260505152229 | 18 | 0 | 3.2 | 6.4 | 0.00 | 0.00 | 0.00 | 38 | 1020.3 |
| 20260505151336 | 18 | 0 | 1.6 | 6.4 | 0.00 | 0.00 | 0.00 | 39 | 1020.5 |